STARLINK-34348, 64152

Orbit data source: Space-Track

STARLINK-34348, 64152 is a payload satellite owned by SpaceX/Seattle (US) in SSO that was launched on Tue, 27 May 2025 UTC via an FALCON 9 launch vehicle from the Air Force Western Test Range (AFWTR). Payload-class satellites include a variety of spacecraft equipped with specific instruments for various scientific and technological missions. These include communications satellites like Starlink; space stations such as the ISS; scientific satellites like the Hubble; Earth observation satellites from companies like Planet Labs, Umbra, and HawkEye 360; GPS; miniature CubeSats for education and research; and military/defense satellites.

Loading next visibility...
Identifier
64152, 2025-112G
Orbit
SSO
Country
Flag of USUS
Related business
Manufacturer
SpaceX/Seattle
Mission
Operational Commercial Communications
Bus & Motor
STARLINK V2MO, Unknown motor
Mass
575 kg wet, ~530 kg dry
Launch date (UTC)
2025-05-27 (1 year ago)
Launch vehicle
FALCON 9
Launch site
Air Force Western Test Range (AFWTR)
Object type
Payload
Rocket body
Debris
Shape & HBR
Box + 1 Pan, 17.7 m
Radar Cross Section
41.120 m², Large (>1 m²)

Expand to show TLE details & history
Last TLE update: 18 hours ago

TLE from 18 hours ago
0 STARLINK-34348
1 64152U 25112G   26236.40275464  .00015680  00000-0  48694-3 0  9994
2 64152  97.2837 283.8319 0000470 295.6150  64.5044 15.33450587 68591
Epoch: 2026-08-24T09:39Z
TLE epoch observation values (Epoch: 2026-08-24T09:39:58.000Z)
Latitude
-0.00007°
Longitude
166.15528°
Altitude
468.5 km
Speed
7.632 km/s
True Right ascension
18h 55m 19s
True Declination
0° 00' 00"
Sunlit
Object was in full shadow at epoch
Visualization orbit readout
Latitude
Unknown
Longitude
Unknown
Altitude
Unknown
Speed
Unknown
Apparent Right ascension
Unknown
Apparent Declination
Unknown
Sunlit
N/A
Visualization observer readout
Local Sidereal Time
18:43:11
Azimuth
Unknown
Elevation
Unknown
Doppler factor
Unknown
Orbital elements
Apogee altitude
462.791 km
Perigee altitude
462.148 km
Semi-major axis
6,840.606 km
Eccentricity
0.00005
Inclination
97.2837°
RAAN
283.8319°
Arg. of periapsis
295.615°
True anomaly
64.50926°
Mean anomaly
64.5044°
Eccentric anomaly
64.50683°
Mean motion
3.8362 °/min
Orbital period
93.84 mins
BSTAR
0.00048694
Loading maneuver chart data...
Computing Atmospheric mass density...
Loading historical data...
Loading historical data...
Loading historical data...
Loading historical data...
Loading historical data...
Loading historical data...
Loading historical data...

Documentation

Showing up to 5 results
|